Location: Podia
(1.5569°N, 32.3469°E)
Time: 11:39:17
(UTC+00:00)

Transit 2A - All Passes

Search period start: 26 September 2020 00:00
Search period end: 06 October 2020 00:00
Orbit: 592 x 967 km, 66.7° (Epoch: 25 September)

Date Brightness Start Highest point End Pass type
(mag) Time Alt. Az. Time Alt. Az. Time Alt. Az.
26 Sep - 04:13:17 10° SSE 04:17:33 23° ESE 04:22:06 10° ENE daylight
26 Sep - 05:55:42 10° SW 06:00:29 28° WNW 06:05:37 10° N daylight
26 Sep - 16:47:21 10° NNW 16:52:28 72° ENE 16:57:07 10° SSE visible
27 Sep - 03:40:50 10° SE 03:43:31 13° ESE 03:46:16 10° E daylight
27 Sep - 05:20:58 10° SW 05:26:18 46° WNW 05:32:06 10° N daylight
27 Sep - 16:13:32 10° N 16:18:20 40° ENE 16:22:43 10° SE visible
28 Sep - 04:46:35 10° SSW 04:52:09 75° WNW 04:58:15 10° NNE daylight
28 Sep - 15:40:09 10° NNE 15:44:09 23° ENE 15:47:53 10° ESE daylight
28 Sep - 17:23:43 10° WNW 17:27:00 18° WSW 17:30:06 10° SSW visible
29 Sep - 04:12:31 10° SSW 04:18:03 68° ESE 04:24:06 10° NNE daylight
29 Sep - 15:07:33 10° NE 15:09:56 13° ENE 15:12:13 10° E daylight
29 Sep - 16:48:34 10° NW 16:52:58 31° WSW 16:57:01 10° S visible
30 Sep - 03:38:46 10° S 03:43:59 41° ESE 03:49:38 10° NE daylight
30 Sep - 05:23:42 10° WSW 05:27:07 16° WNW 05:30:41 10° NNW daylight
30 Sep - 16:13:58 10° NNW 16:18:54 56° WSW 16:23:24 10° S visible
01 Oct - 03:05:23 10° SSE 03:09:56 25° ESE 03:14:47 10° NE visible
01 Oct - 04:48:13 10° WSW 04:52:54 26° WNW 04:57:53 10° NNW daylight
01 Oct - 15:39:45 10° NNW 15:44:49 81° ENE 15:49:25 10° SSE daylight
02 Oct - 02:32:40 10° SE 02:35:53 15° ESE 02:39:14 10° ENE visible
02 Oct - 04:13:23 10° SW 04:18:42 41° WNW 04:24:28 10° N daylight
02 Oct - 15:05:52 10° N 15:10:41 44° ENE 15:15:05 10° SE daylight
03 Oct - 03:38:57 10° SSW 03:44:33 68° WNW 03:50:40 10° NNE daylight
03 Oct - 14:32:22 10° NNE 14:36:31 25° ENE 14:40:21 10° ESE daylight
03 Oct - 16:16:29 10° WNW 16:19:19 15° WSW 16:22:03 10° SW visible
04 Oct - 03:04:49 10° SSW 03:10:27 76° ESE 03:16:35 10° NNE visible
04 Oct - 13:59:33 10° NNE 14:02:18 15° ENE 14:04:55 10° E daylight
04 Oct - 15:41:08 10° NW 15:45:17 27° WSW 15:49:09 10° SSW daylight
05 Oct - 02:31:00 10° S 02:36:22 46° ESE 02:42:11 10° NE visible
05 Oct - 04:16:26 10° W 04:19:32 15° WNW 04:22:45 10° NW daylight
05 Oct - 15:06:27 10° NW 15:11:14 49° WSW 15:15:37 10° S daylight
